Weather in Orshanka

Russia / Mari El Republic     56°54′58″N   47°53′37″E
temp.,
°C
wind,
m/s
gust,
m/s
humid.,
%
clouds,
%
prec.,
mm/h
press.,
hPa
HPBL,
m
27 february, sat
sat2700:00−13se71294100 5.7 1000626
03:00−13ese61094100 7.1 999488
06:00−15e61094100 0.2 999449
09:00−15ene61093100 0.4 1000497
12:00−14ne6989100 0.1 1002615
15:00−13nne6989100 0.2 1004667
18:00−15n51192100 0.0 1006355
21:00−16n5109593 0.1 1007249
28 february, sun
sun2800:00−18n499681 0.0 1008175
03:00−20n499847 0.0 1009157
06:00−21n499851 0.0 1010143
09:00−19n479431 0.0 1011245
12:00−15n479266 0.0 1011334
15:00−13n589074 0.0 1013476
18:00−17n349681 0.0 101454
21:00−19n339852 0.0 101725
1 march, mon
mon100:00−21n33980 0.0 101824
03:00−22n33980 0.0 102021
06:00−23n23980 0.0 102120
09:00−19wnw11940 0.0 102256
12:00−13wsw238635 0.0 1021346
15:00−11sw359166 0.0 1020365
18:00−12ssw4897100 0.0 1017205
21:00−12ssw51096100 0.1 1014274
2 march, tue
tue200:00−9ssw61295100 0.4 1010359
03:00−7ssw71295100 1.6 1005497
06:00−5ssw61296100 1.3 1001492
09:00−1sw51097100 2.6 999476
12:000w47100100 0.7 997441
15:000w4710099 0.9 997434
18:00−1nnw71294100 1.7 998672
21:00−4nw4992100 1.8 999218
3 march, wed
wed300:00−7nw469553 0.0 100095
03:00−7nw349758 0.0 100178
06:00−7nw369794 0.1 1001146
09:00−5nnw479597 0.3 1003343
12:00−3nnw71090100 0.2 1005864
15:00−4nnw6108296 0.3 1006887
18:00−7nw410910 0.0 1008201
21:00−8nw5129246 0.1 1010421